Location: ?????
(44.4284°N, 135.2222°E)
Time: 02:14:07
(UTC+00:00)

Cosmos 2279 Rocket - Pass Details

Date: 19 May 2025
Orbit: 962 x 979 km, 82.9° (Epoch: 14 June)

Event Time Altitude Azimuth Distance (km) Brightness Sun altitude
Rises 18:18:59 0° 354° (N) 3,668 7.6 -10.7°
Reaches altitude 10° 18:21:32 10° 357° (N) 2,715 6.9 -10.3°
Maximum altitude 18:27:43 66° 79° (E) 1,051 4.5 -9.5°
Drops below altitude 10° 18:33:50 10° 162° (SSE) 2,690 6.1 -8.7°
Sets 18:36:20 0° 165° (SSE) 3,632 6.7 -8.3°
